START_TIME,STEP,MOV.,M15,t_acc.,M20,t_acc.
1979-07-30 03:00:42.970 ,1,0,0.,24.0,0.,24.0
1979-07-30 03:01:06.970 ,2,1,0.,24.0,0.,24.0
1979-07-30 03:01:30.970 ,2,0,0.,24.0,0.,24.0
1979-07-30 03:01:54.970 ,3,1,0.,24.0,0.,24.0
1979-07-30 03:02:18.970 ,3,0,0.,24.0,0.,24.0
1979-07-30 03:02:42.970 ,4,1,0.,24.0,0.,24.0
1979-07-30 03:03:06.970 ,4,0,0.,24.0,0.,24.0
1979-07-30 03:03:30.970 ,5,1,0.,24.0,0.,24.0
1979-07-30 03:03:54.970 ,5,0,0.,24.0,0.,24.0
1979-07-30 03:04:18.960 ,6,1,0.,24.0,0.,24.0
1979-07-30 03:04:42.970 ,6,0,0.,24.0,0.,24.0
1979-07-30 03:05:06.960 ,7,1,0.,24.0,0.,24.0
1979-07-30 03:05:30.970 ,7,0,0.,24.0,0.,24.0
1979-07-30 03:05:54.970 ,7,1,0.,24.0,0.,24.0
1979-07-30 03:06:18.960 ,7,0,0.,24.0,0.,24.0
1979-07-30 03:06:42.970 ,6,1,0.,24.0,0.,24.0
1979-07-30 03:07:06.960 ,6,0,0.,24.0,0.,24.0
1979-07-30 03:07:30.970 ,5,1,0.,24.0,0.,24.0
1979-07-30 03:07:54.970 ,5,0,0.,24.0,0.,24.0
1979-07-30 03:08:18.960 ,4,1,0.,24.0,0.,24.0
1979-07-30 03:08:42.970 ,4,0,0.,24.0,0.,24.0
1979-07-30 03:09:06.970 ,3,1,0.,24.0,0.,24.0
1979-07-30 03:09:30.970 ,3,0,0.,24.0,0.,24.0
1979-07-30 03:09:54.970 ,2,1,0.,24.0,0.,24.0
1979-07-30 03:10:18.970 ,2,0,0.,24.0,0.,24.0
1979-07-30 03:10:42.970 ,1,1,0.,24.0,0.,24.0
1979-07-30 03:11:06.970 ,1,0,0.,24.0,0.,24.0
1979-07-30 03:11:30.970 ,0,1,0.,24.0,0.,24.0
1979-07-30 03:11:54.970 ,0,0,0.,24.0,0.,24.0
1979-07-30 03:12:18.970 ,0,1,0.,24.0,0.,24.0
1979-07-30 03:12:42.970 ,0,0,0.,24.0,0.,24.0
1979-07-30 03:13:06.970 ,0,0,,0,,0
1979-07-30 03:13:30.970 ,0,0,0.,24.0,0.,24.0
1979-07-30 03:13:54.970 ,2,1,0.,24.0,0.,24.0
1979-07-30 03:14:18.970 ,2,0,0.,24.0,0.,24.0
1979-07-30 03:14:42.960 ,3,1,0.,24.0,0.,24.0
1979-07-30 03:15:06.960 ,3,0,0.,24.0,0.,24.0
1979-07-30 03:15:30.960 ,4,1,0.,24.0,0.,24.0
1979-07-30 03:15:54.960 ,4,0,0.,24.0,0.,24.0
1979-07-30 03:16:18.960 ,5,1,0.,24.0,0.,24.0
1979-07-30 03:16:42.960 ,5,0,0.,24.0,0.,24.0
1979-07-30 03:17:06.960 ,6,1,0.,24.0,0.,24.0
1979-07-30 03:17:30.960 ,6,0,0.,24.0,0.,24.0
1979-07-30 03:17:54.960 ,7,1,0.,24.0,0.,24.0
1979-07-30 03:18:18.960 ,7,0,0.,24.0,0.,24.0
1979-07-30 03:18:42.960 ,7,1,0.,24.0,0.,24.0
1979-07-30 03:19:06.960 ,7,0,0.,24.0,0.,24.0
1979-07-30 03:19:30.960 ,6,1,0.,24.0,0.,24.0
1979-07-30 03:19:54.960 ,6,0,0.,24.0,0.,24.0
1979-07-30 03:20:18.960 ,5,1,0.,24.0,0.,24.0
1979-07-30 03:20:42.960 ,5,0,0.,24.0,0.,24.0
1979-07-30 03:21:06.960 ,4,1,0.,24.0,0.,24.0
1979-07-30 03:21:30.960 ,4,0,0.,24.0,0.,24.0
1979-07-30 03:21:54.960 ,3,1,0.,24.0,0.,24.0
1979-07-30 03:22:18.960 ,3,0,0.,24.0,0.,24.0
1979-07-30 03:22:42.960 ,2,1,0.,24.0,0.,24.0
1979-07-30 03:23:06.960 ,2,0,0.,24.0,0.,24.0
1979-07-30 03:23:30.960 ,0,0,0.,24.0,0.,24.0
1979-07-30 03:23:54.960 ,0,0,0.,24.0,0.,24.0
1979-07-30 03:24:18.960 ,0,1,0.,24.0,0.,24.0
1979-07-30 03:24:42.960 ,0,0,0.,24.0,0.,24.0
1979-07-30 03:25:06.960 ,0,1,0.,24.0,0.,24.0
1979-07-30 03:25:30.960 ,0,0,0.,24.0,0.,24.0
1979-07-30 03:25:54.960 ,1,1,0.,24.0,0.,24.0
1979-07-30 03:26:18.960 ,1,0,0.,24.0,0.,24.0
1979-07-30 03:26:42.960 ,2,1,0.,24.0,0.,24.0
1979-07-30 03:27:06.960 ,2,0,0.,24.0,0.,24.0
1979-07-30 03:27:30.960 ,3,1,0.,24.0,0.,24.0
1979-07-30 03:27:54.960 ,3,0,0.,24.0,0.,24.0
1979-07-30 03:28:18.960 ,4,1,0.,24.0,0.,24.0
1979-07-30 03:28:42.960 ,4,0,0.,24.0,0.,24.0
1979-07-30 03:29:06.960 ,5,1,0.,24.0,0.,24.0
1979-07-30 03:29:30.960 ,5,0,0.,24.0,0.,24.0
1979-07-30 03:29:54.960 ,6,1,0.,24.0,0.,24.0
1979-07-30 03:30:18.960 ,6,0,0.,24.0,0.,24.0
1979-07-30 03:30:42.960 ,7,0,0.,24.0,0.,24.0
1979-07-30 03:31:06.960 ,7,0,0.,24.0,0.,24.0
1979-07-30 03:31:30.960 ,3,1,0.,24.0,0.,24.0
1979-07-30 03:31:54.960 ,0,1,0.,24.0,0.,24.0
1979-07-30 03:32:18.960 ,4,1,0.,24.0,0.,24.0
1979-07-30 03:32:42.960 ,7,1,0.,24.0,0.,24.0
1979-07-30 03:33:06.960 ,3,1,0.,24.0,0.,24.0
1979-07-30 03:33:30.960 ,0,1,0.,24.0,0.,24.0
1979-07-30 03:33:54.960 ,4,1,0.,24.0,0.,24.0
1979-07-30 03:34:18.960 ,7,1,0.,24.0,0.,24.0
1979-07-30 03:34:42.960 ,3,1,0.,24.0,0.,24.0
1979-07-30 03:35:06.960 ,0,1,0.,24.0,0.,24.0
1979-07-30 03:35:30.960 ,4,1,0.,24.0,0.,24.0
1979-07-30 03:35:54.960 ,7,1,0.,24.0,0.,24.0
1979-07-30 03:36:18.960 ,3,1,0.,24.0,0.,24.0
1979-07-30 03:36:42.960 ,0,1,0.,24.0,0.,24.0
1979-07-30 03:37:54.960 ,0,0,0.,24.0,0.,24.0
1979-07-30 03:38:18.960 ,0,1,0.,24.0,0.,24.0
1979-07-30 03:38:42.960 ,4,1,0.,24.0,0.,24.0
1979-07-30 03:39:06.960 ,7,1,0.,24.0,0.,24.0
1979-07-30 03:39:30.960 ,3,1,0.,24.0,0.,24.0
1979-07-30 03:39:54.960 ,0,1,0.,24.0,0.,24.0
1979-07-30 03:40:18.960 ,4,1,0.,24.0,0.,24.0
1979-07-30 03:40:42.960 ,7,1,0.,24.0,0.,24.0
1979-07-30 03:41:06.960 ,3,1,0.,24.0,0.,24.0
1979-07-30 03:41:30.960 ,0,1,0.,24.0,0.,24.0
1979-07-30 03:41:54.960 ,0,0,0.,24.0,0.,24.0
1979-07-30 03:42:18.960 ,0,0,0.,24.0,0.,24.0
1979-07-30 03:42:42.960 ,5,1,0.,24.0,0.,24.0
1979-07-30 03:43:06.960 ,5,0,0.,24.0,0.,24.0
1979-07-30 03:43:30.960 ,4,1,0.,24.0,0.,24.0
1979-07-30 03:43:54.960 ,4,0,0.,24.0,0.,24.0
1979-07-30 03:44:18.960 ,3,1,0.,24.0,0.,24.0
1979-07-30 03:44:42.960 ,3,0,0.,24.0,0.,24.0
1979-07-30 03:45:06.960 ,2,1,0.,24.0,0.,24.0
1979-07-30 03:45:30.960 ,2,0,0.,24.0,0.,24.0
1979-07-30 03:45:54.960 ,1,1,0.,24.0,0.,24.0
1979-07-30 03:46:18.960 ,0,0,,0,,0
1979-07-30 03:46:48.360 ,0,0,0.,24.0,0.,24.0
1979-07-30 03:47:06.960 ,0,0,0.,24.0,0.,24.0
1979-07-30 03:47:30.960 ,0,1,0.,24.0,0.,24.0
1979-07-30 03:47:54.960 ,0,0,0.,24.0,0.,24.0
1979-07-30 03:48:18.960 ,1,1,0.,24.0,0.,24.0
1979-07-30 03:48:42.960 ,1,0,0.,24.0,0.,24.0
1979-07-30 03:49:06.960 ,2,1,0.,24.0,0.,24.0
1979-07-30 03:49:30.960 ,2,0,0.,24.0,0.,24.0
1979-07-30 03:49:54.960 ,3,1,0.,24.0,0.,24.0
1979-07-30 03:50:18.960 ,3,0,0.,24.0,0.,24.0
1979-07-30 03:50:42.960 ,4,1,0.,24.0,0.,24.0
1979-07-30 03:51:06.960 ,4,0,0.,24.0,0.,24.0
1979-07-30 03:51:30.960 ,5,1,0.,24.0,0.,24.0
1979-07-30 03:51:54.960 ,5,0,0.,24.0,0.,24.0
1979-07-30 03:52:18.960 ,6,1,0.,24.0,0.,24.0
1979-07-30 03:52:42.960 ,6,0,0.,24.0,0.,24.0
1979-07-30 03:53:06.960 ,7,1,0.,24.0,0.,24.0
1979-07-30 03:53:30.960 ,7,0,0.,24.0,0.,24.0
1979-07-30 03:53:54.960 ,7,1,0.,24.0,0.,24.0
1979-07-30 03:54:18.960 ,7,0,0.,24.0,0.,24.0
1979-07-30 03:54:42.960 ,6,1,0.,24.0,0.,24.0
1979-07-30 03:55:06.960 ,6,0,0.,24.0,0.,24.0
1979-07-30 03:55:30.960 ,5,1,0.,24.0,0.,24.0
1979-07-30 03:55:54.960 ,5,0,0.,24.0,0.,24.0
1979-07-30 03:56:18.960 ,4,1,0.,24.0,0.,24.0
1979-07-30 03:56:42.960 ,4,0,0.,24.0,0.,24.0
1979-07-30 03:57:06.960 ,3,1,0.,24.0,0.,24.0
1979-07-30 03:57:30.960 ,3,0,0.,24.0,0.,24.0
1979-07-30 03:57:54.960 ,2,1,0.,24.0,0.,24.0
1979-07-30 03:58:18.960 ,2,0,0.,24.0,0.,24.0
1979-07-30 03:58:42.960 ,1,1,0.,24.0,0.,24.0
1979-07-30 03:59:06.960 ,1,0,0.,24.0,0.,24.0
1979-07-30 03:59:30.960 ,0,1,0.,24.0,0.,24.0
1979-07-30 03:59:54.960 ,0,0,0.,24.0,0.,24.0
1979-07-30 04:00:18.960 ,0,1,0.,24.0,0.,24.0
1979-07-30 04:00:42.960 ,0,0,0.,24.0,0.,24.0
1979-07-30 04:01:06.960 ,1,1,0.,24.0,0.,24.0
1979-07-30 04:01:30.960 ,1,0,0.,24.0,0.,24.0
1979-07-30 04:01:54.960 ,2,1,0.,24.0,0.,24.0
1979-07-30 04:02:18.960 ,2,0,0.,24.0,0.,24.0
1979-07-30 04:02:42.960 ,3,1,0.,24.0,0.,24.0
1979-07-30 04:03:06.960 ,3,0,0.,24.0,0.,24.0
1979-07-30 04:03:30.960 ,4,1,0.,24.0,0.,24.0
1979-07-30 04:03:54.960 ,4,0,0.,24.0,0.,24.0
1979-07-30 04:04:18.960 ,5,1,0.,24.0,0.,24.0
1979-07-30 04:04:42.960 ,0,0,,0,,0
1979-07-30 04:05:06.960 ,6,1,0.,24.0,0.,24.0
1979-07-30 04:05:30.960 ,6,0,0.,24.0,0.,24.0
1979-07-30 04:05:54.960 ,7,1,0.,24.0,0.,24.0
1979-07-30 04:06:18.960 ,7,0,0.,24.0,0.,24.0
1979-07-30 04:06:42.960 ,7,1,0.,24.0,0.,24.0
1979-07-30 04:07:06.960 ,7,0,0.,24.0,0.,24.0
1979-07-30 04:07:30.960 ,6,1,1.,24.0,0.,24.0
1979-07-30 04:07:54.960 ,6,0,0.,24.0,0.,24.0
1979-07-30 04:08:18.960 ,5,1,0.,24.0,0.,24.0
1979-07-30 04:08:42.960 ,5,0,0.,24.0,0.,24.0
1979-07-30 04:09:06.960 ,4,1,0.,24.0,0.,24.0
1979-07-30 04:09:30.960 ,4,0,0.,24.0,0.,24.0
1979-07-30 04:09:54.960 ,3,1,0.,24.0,0.,24.0
1979-07-30 04:10:18.960 ,3,0,0.,24.0,0.,24.0
1979-07-30 04:10:42.960 ,2,1,0.,24.0,0.,24.0
1979-07-30 04:11:06.960 ,2,0,0.,24.0,0.,24.0
1979-07-30 04:11:30.960 ,1,1,0.,24.0,0.,24.0
1979-07-30 04:11:54.960 ,1,0,0.,24.0,0.,24.0
1979-07-30 04:12:18.960 ,0,1,0.,24.0,0.,24.0
1979-07-30 04:12:42.960 ,0,0,0.,24.0,0.,24.0
1979-07-30 04:13:06.960 ,0,1,0.,24.0,0.,24.0
1979-07-30 04:13:30.960 ,0,0,0.,24.0,0.,24.0
1979-07-30 04:13:54.960 ,1,1,0.,24.0,0.,24.0
1979-07-30 04:14:18.960 ,1,0,0.,24.0,0.,24.0
1979-07-30 04:14:42.960 ,2,1,0.,24.0,0.,24.0
1979-07-30 04:15:06.960 ,2,0,0.,24.0,0.,24.0
1979-07-30 04:15:30.960 ,3,1,0.,24.0,0.,24.0
1979-07-30 04:15:54.960 ,3,0,0.,24.0,0.,24.0
1979-07-30 04:16:18.960 ,4,1,0.,24.0,0.,24.0
1979-07-30 04:16:42.960 ,4,0,0.,24.0,0.,24.0
1979-07-30 04:17:06.960 ,5,1,0.,24.0,0.,24.0
1979-07-30 04:17:30.960 ,5,0,0.,24.0,0.,24.0
1979-07-30 04:17:54.960 ,6,1,0.,24.0,0.,24.0
1979-07-30 04:18:18.960 ,6,0,0.,24.0,0.,24.0
1979-07-30 04:18:42.960 ,7,0,0.,24.0,0.,24.0
1979-07-30 04:19:06.960 ,7,0,0.,24.0,0.,24.0
1979-07-30 04:19:30.960 ,3,1,0.,24.0,0.,24.0
1979-07-30 04:19:54.960 ,0,1,0.,24.0,0.,24.0
1979-07-30 04:20:18.960 ,4,1,0.,24.0,0.,24.0
1979-07-30 04:20:42.960 ,7,1,0.,24.0,0.,24.0
1979-07-30 04:21:06.960 ,3,1,0.,24.0,0.,24.0
1979-07-30 04:21:30.960 ,0,1,0.,24.0,0.,24.0
1979-07-30 04:21:54.960 ,4,1,0.,24.0,0.,24.0
1979-07-30 04:22:18.960 ,7,1,0.,24.0,0.,24.0
1979-07-30 04:22:42.960 ,3,1,0.,24.0,0.,24.0
1979-07-30 04:23:06.960 ,0,1,0.,24.0,0.,24.0
1979-07-30 04:23:30.960 ,4,1,0.,24.0,0.,24.0
1979-07-30 04:23:54.960 ,7,1,0.,24.0,0.,24.0
1979-07-30 04:24:18.960 ,3,1,0.,24.0,0.,24.0
1979-07-30 04:24:42.960 ,0,1,0.,24.0,0.,24.0
1979-07-30 04:25:06.960 ,4,1,0.,24.0,0.,24.0
1979-07-30 04:25:30.960 ,7,1,0.,24.0,0.,24.0
1979-07-30 04:25:54.960 ,3,1,0.,24.0,0.,24.0
1979-07-30 04:26:18.960 ,0,1,0.,24.0,0.,24.0
1979-07-30 04:26:42.960 ,4,1,0.,24.0,0.,24.0
1979-07-30 04:27:06.960 ,7,1,0.,24.0,0.,24.0
1979-07-30 04:27:30.960 ,3,1,0.,24.0,0.,24.0
1979-07-30 04:27:54.960 ,0,1,0.,24.0,0.,24.0
1979-07-30 04:28:18.960 ,4,1,0.,24.0,0.,24.0
1979-07-30 04:28:42.960 ,7,1,0.,24.0,0.,24.0
1979-07-30 04:29:06.960 ,3,1,0.,24.0,0.,24.0
1979-07-30 04:29:30.960 ,0,1,0.,24.0,0.,24.0
1979-07-30 04:29:54.960 ,0,0,0.,24.0,0.,24.0
1979-07-30 04:30:18.960 ,0,0,0.,24.0,0.,24.0
1979-07-30 04:30:42.960 ,5,1,0.,24.0,0.,24.0
1979-07-30 04:31:06.960 ,5,0,0.,24.0,0.,24.0
1979-07-30 04:31:30.960 ,4,1,0.,24.0,0.,24.0
1979-07-30 04:31:54.960 ,4,0,0.,24.0,0.,24.0
1979-07-30 04:32:18.960 ,3,1,0.,24.0,0.,24.0
1979-07-30 04:32:42.960 ,3,0,0.,24.0,0.,24.0
1979-07-30 04:33:06.960 ,2,1,0.,24.0,0.,24.0
1979-07-30 04:33:30.960 ,2,0,0.,24.0,0.,24.0
1979-07-30 04:33:54.960 ,1,1,0.,24.0,0.,24.0
1979-07-30 04:34:18.960 ,1,0,0.,24.0,0.,24.0
1979-07-30 04:34:42.960 ,0,1,0.,24.0,0.,24.0
1979-07-30 04:35:06.960 ,0,0,0.,24.0,0.,24.0
1979-07-30 04:35:30.960 ,0,1,0.,24.0,0.,24.0
1979-07-30 04:35:54.960 ,0,0,0.,24.0,0.,24.0
1979-07-30 04:36:18.960 ,1,1,0.,24.0,0.,24.0
1979-07-30 04:36:42.960 ,1,0,1.,24.0,0.,24.0
1979-07-30 04:37:06.960 ,2,1,0.,24.0,0.,24.0
1979-07-30 04:37:30.960 ,2,0,0.,24.0,0.,24.0
1979-07-30 04:37:54.960 ,3,1,0.,24.0,0.,24.0
1979-07-30 04:38:18.960 ,3,0,0.,24.0,0.,24.0
1979-07-30 04:38:42.960 ,4,1,0.,24.0,0.,24.0
1979-07-30 04:39:06.960 ,4,0,0.,24.0,0.,24.0
1979-07-30 04:39:30.960 ,5,1,0.,24.0,0.,24.0
1979-07-30 04:39:54.960 ,5,0,0.,24.0,0.,24.0
1979-07-30 04:40:18.960 ,6,1,0.,24.0,0.,24.0
1979-07-30 04:40:42.960 ,6,0,0.,24.0,0.,24.0
1979-07-30 04:41:06.960 ,7,1,0.,24.0,0.,24.0
1979-07-30 04:41:30.960 ,7,0,0.,24.0,0.,24.0
1979-07-30 04:41:54.960 ,7,1,0.,24.0,0.,24.0
1979-07-30 04:42:18.960 ,7,0,0.,24.0,0.,24.0
1979-07-30 04:42:42.960 ,6,1,0.,24.0,0.,24.0
1979-07-30 04:43:06.960 ,6,0,0.,24.0,0.,24.0
1979-07-30 04:43:30.960 ,5,1,0.,24.0,0.,24.0
1979-07-30 04:43:54.960 ,5,0,0.,24.0,0.,24.0
1979-07-30 04:44:18.960 ,4,1,0.,24.0,0.,24.0
1979-07-30 04:44:42.960 ,4,0,0.,24.0,0.,24.0
1979-07-30 04:45:06.960 ,3,1,0.,24.0,0.,24.0
1979-07-30 04:45:30.960 ,3,0,0.,24.0,0.,24.0
1979-07-30 04:45:54.960 ,2,1,0.,24.0,0.,24.0
1979-07-30 04:46:18.960 ,2,0,0.,24.0,0.,24.0
1979-07-30 04:46:42.960 ,1,1,0.,24.0,0.,24.0
1979-07-30 04:47:06.960 ,1,0,0.,24.0,0.,24.0
1979-07-30 04:47:30.960 ,0,1,0.,24.0,0.,24.0
1979-07-30 04:47:54.960 ,0,0,0.,24.0,0.,24.0
1979-07-30 04:48:18.960 ,0,1,0.,24.0,0.,24.0
1979-07-30 04:48:42.960 ,0,0,0.,24.0,0.,24.0
1979-07-30 04:49:06.960 ,1,1,0.,24.0,0.,24.0
1979-07-30 04:49:30.960 ,1,0,1.,24.0,0.,24.0
1979-07-30 04:49:54.960 ,2,1,0.,24.0,0.,24.0
1979-07-30 04:50:18.960 ,2,0,0.,24.0,0.,24.0
1979-07-30 04:50:42.960 ,3,1,0.,24.0,0.,24.0
1979-07-30 04:51:06.960 ,3,0,0.,24.0,0.,24.0
1979-07-30 04:51:30.960 ,4,1,0.,24.0,0.,24.0
1979-07-30 04:51:54.960 ,4,0,0.,24.0,0.,24.0
1979-07-30 04:52:18.960 ,5,1,0.,24.0,0.,24.0
1979-07-30 04:52:42.960 ,5,0,0.,24.0,0.,24.0
1979-07-30 04:53:06.960 ,6,1,0.,24.0,0.,24.0
1979-07-30 04:53:30.960 ,6,0,0.,24.0,0.,24.0
1979-07-30 04:53:54.960 ,7,1,0.,24.0,0.,24.0
1979-07-30 04:54:18.960 ,7,0,0.,24.0,0.,24.0
1979-07-30 04:54:42.960 ,7,1,0.,24.0,0.,24.0
1979-07-30 04:55:06.960 ,7,0,0.,24.0,0.,24.0
1979-07-30 04:55:30.960 ,6,1,0.,24.0,0.,24.0
1979-07-30 04:55:54.960 ,6,0,0.,24.0,0.,24.0
1979-07-30 04:56:18.960 ,5,1,0.,24.0,0.,24.0
1979-07-30 04:56:42.960 ,5,0,0.,24.0,0.,24.0
1979-07-30 04:57:06.960 ,4,1,0.,24.0,0.,24.0
1979-07-30 04:57:30.960 ,4,0,0.,24.0,0.,24.0
1979-07-30 04:57:54.960 ,3,1,0.,24.0,0.,24.0
1979-07-30 04:58:18.960 ,3,0,0.,24.0,0.,24.0
1979-07-30 04:58:42.960 ,2,1,0.,24.0,0.,24.0
1979-07-30 04:59:06.960 ,2,0,0.,24.0,0.,24.0
1979-07-30 04:59:30.960 ,1,1,0.,24.0,0.,24.0
1979-07-30 04:59:54.960 ,1,0,0.,24.0,0.,24.0
1979-07-30 05:00:18.960 ,0,1,0.,24.0,0.,24.0
1979-07-30 05:00:42.960 ,0,0,0.,24.0,0.,24.0
1979-07-30 05:01:06.960 ,0,1,0.,24.0,0.,24.0
1979-07-30 05:01:30.960 ,0,0,0.,24.0,0.,24.0
1979-07-30 05:01:54.960 ,1,1,0.,24.0,0.,24.0
1979-07-30 05:02:18.960 ,1,0,0.,24.0,0.,24.0
1979-07-30 05:02:42.960 ,2,1,0.,24.0,0.,24.0
1979-07-30 05:03:06.960 ,2,0,0.,24.0,0.,24.0
1979-07-30 05:03:30.960 ,3,1,0.,24.0,0.,24.0
1979-07-30 05:03:54.960 ,3,0,0.,24.0,0.,24.0
1979-07-30 05:04:18.960 ,4,1,0.,24.0,0.,24.0
1979-07-30 05:04:42.960 ,4,0,0.,24.0,0.,24.0
1979-07-30 05:05:06.960 ,5,1,0.,24.0,0.,24.0
1979-07-30 05:05:30.960 ,5,0,0.,24.0,0.,24.0
1979-07-30 05:05:54.960 ,6,1,0.,24.0,0.,24.0
1979-07-30 05:06:18.960 ,6,0,0.,24.0,0.,24.0
1979-07-30 05:06:42.960 ,7,0,0.,24.0,0.,24.0
1979-07-30 05:07:06.960 ,7,0,0.,24.0,0.,24.0
1979-07-30 05:07:30.960 ,3,1,0.,24.0,0.,24.0
1979-07-30 05:07:54.960 ,0,1,0.,24.0,0.,24.0
1979-07-30 05:08:18.960 ,4,1,0.,24.0,0.,24.0
1979-07-30 05:08:42.960 ,7,1,0.,24.0,0.,24.0
1979-07-30 05:09:06.960 ,3,1,0.,24.0,0.,24.0
1979-07-30 05:09:30.960 ,0,1,0.,24.0,0.,24.0
1979-07-30 05:09:54.960 ,4,1,0.,24.0,0.,24.0
1979-07-30 05:10:18.960 ,7,1,0.,24.0,0.,24.0
1979-07-30 05:10:42.960 ,3,1,0.,24.0,0.,24.0
1979-07-30 05:11:06.960 ,0,1,0.,24.0,0.,24.0
1979-07-30 05:11:30.960 ,4,1,0.,24.0,0.,24.0
1979-07-30 05:11:54.960 ,7,1,0.,24.0,0.,24.0
1979-07-30 05:12:18.960 ,3,1,0.,24.0,0.,24.0
1979-07-30 05:12:42.960 ,0,1,0.,24.0,0.,24.0
1979-07-30 05:13:06.960 ,4,1,0.,24.0,0.,24.0
1979-07-30 05:13:30.960 ,7,1,0.,24.0,0.,24.0
1979-07-30 05:13:54.960 ,3,1,0.,24.0,0.,24.0
1979-07-30 05:14:18.960 ,0,1,0.,24.0,0.,24.0
1979-07-30 05:14:42.960 ,4,1,0.,24.0,0.,24.0
1979-07-30 05:15:06.960 ,7,1,0.,24.0,0.,24.0
1979-07-30 05:15:30.960 ,3,1,0.,24.0,0.,24.0
1979-07-30 05:15:54.960 ,0,1,0.,24.0,0.,24.0
1979-07-30 05:16:18.960 ,4,1,0.,24.0,0.,24.0
1979-07-30 05:16:42.960 ,7,1,0.,24.0,0.,24.0
1979-07-30 05:17:06.960 ,3,1,0.,24.0,0.,24.0
1979-07-30 05:17:30.960 ,0,1,0.,24.0,0.,24.0
1979-07-30 05:17:54.960 ,0,0,0.,24.0,0.,24.0
1979-07-30 05:18:18.960 ,0,0,0.,24.0,0.,24.0
1979-07-30 05:18:42.960 ,5,1,0.,24.0,0.,24.0
1979-07-30 05:19:06.960 ,5,0,0.,24.0,0.,24.0
1979-07-30 05:19:30.960 ,4,1,0.,24.0,0.,24.0
1979-07-30 05:19:54.960 ,4,0,0.,24.0,0.,24.0
1979-07-30 05:20:18.960 ,3,1,0.,24.0,0.,24.0
1979-07-30 05:20:42.960 ,3,0,0.,24.0,0.,24.0
1979-07-30 05:21:06.960 ,2,1,0.,24.0,0.,24.0
1979-07-30 05:21:30.960 ,2,0,0.,24.0,0.,24.0
1979-07-30 05:21:54.960 ,1,1,0.,24.0,0.,24.0
1979-07-30 05:22:18.960 ,1,0,0.,24.0,0.,24.0
1979-07-30 05:22:42.960 ,0,1,0.,24.0,0.,24.0
1979-07-30 05:23:06.960 ,0,0,0.,24.0,0.,24.0
1979-07-30 05:23:30.960 ,0,1,0.,24.0,0.,24.0
1979-07-30 05:23:54.960 ,0,0,0.,24.0,0.,24.0
1979-07-30 05:24:18.960 ,1,1,0.,24.0,0.,24.0
1979-07-30 05:24:42.960 ,1,0,0.,24.0,0.,24.0
1979-07-30 05:25:06.960 ,2,1,0.,24.0,0.,24.0
1979-07-30 05:25:30.960 ,2,0,0.,24.0,0.,24.0
1979-07-30 05:25:54.960 ,3,1,0.,24.0,0.,24.0
1979-07-30 05:26:18.960 ,3,0,0.,24.0,0.,24.0
1979-07-30 05:26:42.960 ,4,1,0.,24.0,0.,24.0
1979-07-30 05:27:06.960 ,4,0,0.,24.0,0.,24.0
1979-07-30 05:27:30.960 ,5,1,0.,24.0,0.,24.0
1979-07-30 05:27:54.960 ,0,0,,0,,0
1979-07-30 05:28:18.960 ,6,1,0.,24.0,0.,24.0
1979-07-30 05:28:42.960 ,0,0,0.,24.0,0.,24.0
1979-07-30 05:29:09.960 ,0,0,0.,24.0,0.,24.0
1979-07-30 05:29:30.960 ,0,0,0.,24.0,0.,24.0
1979-07-30 05:29:54.960 ,7,1,0.,24.0,0.,24.0
1979-07-30 05:30:18.960 ,7,0,0.,24.0,0.,24.0
1979-07-30 05:30:42.960 ,6,1,0.,24.0,0.,24.0
1979-07-30 05:31:06.960 ,6,0,0.,24.0,0.,24.0
1979-07-30 05:31:30.960 ,5,1,0.,24.0,0.,24.0
1979-07-30 05:31:54.960 ,5,0,0.,24.0,0.,24.0
1979-07-30 05:32:18.960 ,4,1,0.,24.0,0.,24.0
1979-07-30 05:32:42.960 ,4,0,0.,24.0,0.,24.0
1979-07-30 05:33:06.960 ,3,1,0.,24.0,0.,24.0
1979-07-30 05:33:30.960 ,3,0,0.,24.0,0.,24.0
1979-07-30 05:33:54.960 ,2,1,0.,24.0,0.,24.0
1979-07-30 05:34:18.960 ,2,0,0.,24.0,0.,24.0
1979-07-30 05:34:42.960 ,1,1,0.,24.0,0.,24.0
1979-07-30 05:35:06.960 ,1,0,0.,24.0,0.,24.0
1979-07-30 05:35:30.960 ,0,1,0.,24.0,0.,24.0
1979-07-30 05:35:54.960 ,0,0,0.,24.0,0.,24.0
1979-07-30 05:36:18.960 ,0,1,0.,24.0,0.,24.0
1979-07-30 05:36:42.960 ,0,0,0.,24.0,0.,24.0
1979-07-30 05:37:06.960 ,1,1,0.,24.0,0.,24.0
1979-07-30 05:37:30.960 ,1,0,0.,24.0,0.,24.0
1979-07-30 05:37:54.960 ,2,1,0.,24.0,0.,24.0
1979-07-30 05:38:18.960 ,2,0,0.,24.0,0.,24.0
1979-07-30 05:38:42.960 ,3,1,0.,24.0,0.,24.0
1979-07-30 05:39:06.960 ,3,0,0.,24.0,0.,24.0
1979-07-30 05:39:30.960 ,4,1,0.,24.0,0.,24.0
1979-07-30 05:39:54.960 ,4,0,0.,24.0,0.,24.0
1979-07-30 05:40:18.960 ,5,1,1.,24.0,0.,24.0
1979-07-30 05:40:42.960 ,5,0,0.,24.0,0.,24.0
1979-07-30 05:41:06.960 ,6,1,0.,24.0,0.,24.0
1979-07-30 05:41:30.960 ,6,0,0.,24.0,0.,24.0
1979-07-30 05:41:54.960 ,7,1,0.,24.0,0.,24.0
1979-07-30 05:42:18.960 ,7,0,0.,24.0,0.,24.0
1979-07-30 05:42:42.960 ,7,1,0.,24.0,0.,24.0
1979-07-30 05:43:06.960 ,7,0,0.,24.0,0.,24.0
1979-07-30 05:43:30.960 ,6,1,0.,24.0,0.,24.0
1979-07-30 05:43:54.960 ,6,0,0.,24.0,0.,24.0
1979-07-30 05:44:18.960 ,5,1,0.,24.0,0.,24.0
1979-07-30 05:44:42.960 ,5,0,0.,24.0,0.,24.0
1979-07-30 05:45:06.960 ,4,1,0.,24.0,0.,24.0
1979-07-30 05:45:30.960 ,4,0,0.,24.0,0.,24.0
1979-07-30 05:45:54.960 ,3,1,0.,24.0,0.,24.0
1979-07-30 05:46:18.960 ,3,0,0.,24.0,0.,24.0
1979-07-30 05:46:42.960 ,2,1,0.,24.0,0.,24.0
1979-07-30 05:47:06.960 ,2,0,0.,24.0,0.,24.0
1979-07-30 05:47:30.960 ,1,1,0.,24.0,0.,24.0
1979-07-30 05:47:54.960 ,1,0,0.,24.0,0.,24.0
1979-07-30 05:48:18.960 ,0,1,0.,24.0,0.,24.0
1979-07-30 05:48:42.960 ,0,0,0.,24.0,0.,24.0
1979-07-30 05:49:06.960 ,0,1,0.,24.0,0.,24.0
1979-07-30 05:49:30.960 ,0,0,0.,24.0,0.,24.0
1979-07-30 05:49:54.960 ,1,1,0.,24.0,0.,24.0
1979-07-30 05:50:18.960 ,1,0,0.,24.0,0.,24.0
1979-07-30 05:50:42.960 ,2,1,0.,24.0,0.,24.0
1979-07-30 05:51:06.960 ,2,0,0.,24.0,0.,24.0
1979-07-30 05:51:30.960 ,3,1,0.,24.0,0.,24.0
1979-07-30 05:51:54.960 ,3,0,0.,24.0,0.,24.0
1979-07-30 05:52:18.960 ,4,1,0.,24.0,0.,24.0
1979-07-30 05:52:42.960 ,4,0,0.,24.0,0.,24.0
1979-07-30 05:53:06.960 ,5,1,0.,24.0,0.,24.0
1979-07-30 05:53:30.960 ,5,0,0.,24.0,0.,24.0
1979-07-30 05:53:54.960 ,6,1,0.,24.0,0.,24.0
1979-07-30 05:54:18.960 ,6,0,0.,24.0,0.,24.0
1979-07-30 05:54:42.960 ,7,0,0.,24.0,0.,24.0
1979-07-30 05:55:06.960 ,7,0,0.,24.0,0.,24.0
1979-07-30 05:55:30.960 ,3,1,0.,24.0,0.,24.0
1979-07-30 05:55:54.960 ,0,1,0.,24.0,0.,24.0
1979-07-30 05:56:18.960 ,4,1,0.,24.0,0.,24.0
1979-07-30 05:56:42.960 ,7,1,0.,24.0,0.,24.0
1979-07-30 05:57:06.960 ,3,1,0.,24.0,0.,24.0
1979-07-30 05:57:30.960 ,0,1,0.,24.0,0.,24.0
1979-07-30 05:57:54.960 ,4,1,0.,24.0,0.,24.0
1979-07-30 05:58:18.960 ,7,1,0.,24.0,0.,24.0
1979-07-30 05:58:42.960 ,3,1,0.,24.0,0.,24.0
1979-07-30 05:59:06.960 ,0,1,0.,24.0,0.,24.0
1979-07-30 05:59:30.960 ,4,1,0.,24.0,0.,24.0
1979-07-30 05:59:54.960 ,7,1,0.,24.0,0.,24.0
1979-07-30 06:00:18.960 ,3,1,0.,24.0,0.,24.0
